Flag for Russia Weather past 2 weeks in Sochi, Russia

Now
59 °F

More clouds than sun.


Feels Like: 58 °F
Forecast: 47 / 58 °F
Wind: 6 mph from East

Location: Adler

Current Time: Dec 18, 2014 at 12:42:38 PM

Latest Report: Dec 18, 2014 at 12:00 PM


Visibility: N/A

Pressure: 30.01 "Hg

Humidity: 39%

Dew point: 34 °F

Location of SochiLocation

Historic Weather in Sochi — Graph

°F

Sochi temperature yesterday

Maximum temperature yesterday: 61 °F (at 12:30 PM)
Minimum temperature yesterday: 45 °F (at 12:00 AM)
Average temperature yesterday: 50 °F

Past Weeks' High & Low Weather Summary

 TemperatureHumidityPressure
High72 °F (Dec 9, 4:00 PM)94% (Dec 11, 10:30 AM)30.42 "Hg (Dec 11, 10:30 AM)
Low34 °F (Dec 4, 8:00 AM)25% (Dec 9, 4:00 PM)29.92 "Hg (Dec 9, 9:00 PM)
Average51 °F69%30.16 "Hg
* Reported Dec 3 11:00 AM — Dec 18 11:30 AM, Sochi, Weather by CustomWeather, © 2014

Note: Actual official high and low records may vary slightly from our data, if they occured in-between our weather recording intervals... More about our weather records

Advertising

Sochi weather history for previous 24 hours

 ConditionsComfort  
Time TempWeatherWind HumidityBarometerVisibility
11:30 AM
Dec 18
55 °FBroken clouds.6 mph44%30.04 "HgN/A
11:00 AM54 °FPartly sunny.8 mph44%30.04 "HgN/A
10:30 AM50 °FPartly sunny.8 mph50%30.04 "HgN/A
10:00 AM48 °FPartly sunny.8 mph54%30.04 "HgN/A
9:30 AM48 °FBroken clouds.No wind54%30.04 "HgN/A
9:00 AM48 °FBroken clouds.No wind54%30.04 "HgN/A
8:30 AM48 °FPassing clouds.10 mph54%30.04 "HgN/A
8:00 AM48 °FPassing clouds.13 mph54%30.04 "HgN/A
7:30 AM48 °FPassing clouds.1 mph54%30.04 "HgN/A
6:30 AM48 °FPassing clouds.3 mph54%30.04 "HgN/A
6:00 AM48 °FOvercast.3 mph58%30.04 "HgN/A
5:30 AM48 °FOvercast.10 mph58%30.04 "HgN/A
5:00 AM48 °FOvercast.6 mph58%30.04 "HgN/A
4:30 AM48 °FOvercast.No wind58%30.04 "HgN/A
4:00 AM48 °FOvercast.8 mph58%30.04 "HgN/A
3:30 AM48 °FOvercast.8 mph58%30.04 "HgN/A
3:00 AM48 °FOvercast.3 mph58%30.07 "HgN/A
2:30 AM50 °FOvercast.6 mph54%30.07 "HgN/A
2:00 AM50 °FOvercast.13 mph54%30.04 "HgN/A
1:30 AM50 °FOvercast.10 mph54%30.04 "HgN/A
1:00 AM50 °FOvercast.8 mph58%30.07 "HgN/A
12:30 AM50 °FOvercast.8 mph58%30.07 "HgN/A
12:00 AM50 °FOvercast.1 mph58%30.09 "HgN/A
11:30 PM
Dec 17
52 °FOvercast.13 mph54%30.09 "HgN/A
11:00 PM50 °FOvercast.10 mph58%30.09 "HgN/A
10:30 PM48 °FOvercast.1 mph66%30.09 "HgN/A
10:00 PM50 °FOvercast.1 mph62%30.09 "HgN/A
9:30 PM50 °FOvercast.1 mph62%30.09 "HgN/A
9:00 PM48 °FOvercast.No wind66%30.09 "HgN/A
8:30 PM48 °FOvercast.1 mph66%30.09 "HgN/A
8:00 PM50 °FOvercast.1 mph62%30.12 "HgN/A
7:30 PM50 °FOvercast.8 mph71%30.12 "HgN/A
7:00 PM48 °FOvercast.No wind76%30.12 "HgN/A
6:30 PM48 °FOvercast.6 mph82%30.12 "HgN/A
6:00 PM50 °FOvercast.6 mph76%30.12 "HgN/A
5:30 PM50 °FOvercast.8 mph82%30.12 "HgN/A
5:00 PM50 °FOvercast.3 mph82%30.12 "HgN/A
4:30 PM54 °FOvercast.No wind77%30.12 "HgN/A
4:00 PM54 °FOvercast.No wind77%30.12 "HgN/A
3:30 PM55 °FOvercast.1 mph72%30.12 "HgN/A
3:00 PM55 °FOvercast.3 mph72%30.15 "HgN/A
2:30 PM57 °FOvercast.1 mph63%30.15 "HgN/A
2:00 PM57 °FPartly sunny.6 mph63%30.15 "HgN/A
1:30 PM59 °FPartly sunny.3 mph51%30.15 "HgN/A
1:00 PM59 °FPartly sunny.3 mph48%30.15 "HgN/A
12:30 PM61 °FScattered clouds.3 mph39%30.18 "HgN/A
12:00 PM57 °FScattered clouds.3 mph44%30.18 "HgN/A
Weather by CustomWeather, © 2014

See weather overviewHow to use our weather pages